Tracking 21076 objects as of 7-Aug-2020
HD Live streaming from Space Station
objects crossing your sky now

ARIANE 44LP DEB

Track ARIANE 44LP DEB now!


NORAD ID: 33544
Int'l Code: 1988-109T
Perigee: 364.6 km
Apogee: 34,642.1 km
Inclination: 6.5 °
Period: 611.9 minutes
Semi major axis: 23874 km
RCS: 0.2316 m2 (medium)
Launch date: December 11, 1988
Source: France (FR)
Launch site: FRENCH GUIANA (FRGUI)

Note: This is SATELLITE DEBRIS
aabbcc
Your satellite tracking list
Your tracking list is empty




NASA's NSSDC Master Catalog

Two Line Element Set (TLE):
1 33544U 88109T   20219.07180108  .00000001  00000-0  20790-3 0  9996
2 33544   6.5063 229.7287 7178722  93.9809 343.0571  2.35345013152782
Source of the keplerian elements: AFSPC